Temp
100 101 104 102 100 100 98 98 97 94 89 87 87 87 86 86 87 86 87 85 87 89 88 89 86 88 89 89 90 89 89 90 90
97 99 102 102 102 101 100 99 97 93 91 89 88 89 87 86 87 87 89 87 88 87 88 88 91 91 88 89 89 89 89 89 90
97 99 99 102 104 102 102 102 101 96 95 90 90 92 90 89 88 87 89 90 86 87 84 87 88 87 88 88 87 88 84 88 89
95 96 97 99 102 104 102 102 101 99 96 93 92 93 92 90 89 89 89 89 89 88 89 87 88 85 85 85 86 85 84 86 88
92 92 94 97 100 101 100 100 99 97 98 96 94 94 92 91 91 90 89 88 89 89 87 88 86 87 87 86 87 87 86 86 86
89 89 90 92 93 96 97 97 98 97 96 96 97 95 94 93 91 91 91 89 89 87 87 86 89 87 85 85 86 86 87 86 86
87 87 87 88 88 87 89 91 93 94 95 95 95 95 94 91 91 91 91 90 88 89 87 86 86 87 86 86 87 87 86 85 84
84 84 84 85 85 85 86 86 88 90 91 92 94 92 91 90 90 90 90 88 87 87 86 86 86 86 86 87 88 91 87 85 84
80 81 82 83 85 85 85 85 86 87 88 88 90 90 90 90 88 87 87 87 87 85 85 85 85 85 86 86 91 79 75 82 87
79 80 80 82 84 84 84 86 87 84 86 88 85 86 87 88 87 86 86 86 86 84 84 84 84 85 86 86 87 73 71 73 89
79 80 80 81 84 84 85 87 87 86 87 80 84 80 82 86 86 85 85 85 84 83 84 83 83 84 84 85 87 71 69 71 86
81 81 82 84 85 84 84 85 86 85 85 83 72 71 72 79 82 83 83 83 83 84 83 84 84 85 84 84 85 69 67 71 86
82 84 84 83 85 85 86 84 85 84 83 83 77 73 73 78 85 82 81 82 83 84 84 84 87 86 86 80 85 67 65 70 87
83 83 82 84 83 83 83 85 85 81 82 83 83 83 79 81 82 81 81 83 81 80 82 83 80 84 85 86 84 83 63 62 84
80 81 81 82 82 82 84 84 83 80 79 82 82 82 81 81 83 82 81 82 79 82 82 81 82 82 81 87 86 71 62 61 64
79 79 78 81 81 80 81 82 81 79 79 80 80 80 80 80 81 81 80 77 78 82 82 84 82 78 77 79 81 86 61 59 59
77 78 74 76 77 77 78 80 80 80 81 81 79 78 79 81 82 76 79 77 78 84 85 83 81 82 79 74 73 78 79 72 67
75 74 73 75 72 74 74 78 78 79 80 81 79 79 80 82 85 81 77 76 77 74 79 82 84 79 74 68 69 69 68 74 77
73 72 72 69 71 72 73 73 73 78 78 79 78 78 82 85 85 80 77 71 69 56 54 55 53 55 65 72 60 57 55 54 56
68 70 70 70 68 71 71 72 72 75 78 78 77 77 78 83 77 71 70 71 67 68 60 53 53 56 56 55 56 53 50 49 47
MSLP
998.98 999.18 999.54 1000.31 1001.37 1002.23 1003.23 1004.04 1005.11 1006.61 1008.01 1009.00 1009.73 1010.34 1010.91 1011.52 1011.88 1012.36 1012.71 1013.16 1012.94 1013.13 1013.76 1014.09 1014.41 1014.75 1014.90 1015.25 1015.37 1015.79 1015.86 1016.47 1016.43
999.23 999.49 999.39 1000.04 1000.88 1001.78 1002.57 1003.52 1004.52 1006.11 1007.15 1008.20 1009.01 1009.46 1010.34 1011.00 1011.50 1011.81 1011.65 1012.28 1012.81 1012.98 1012.85 1013.12 1013.39 1013.85 1014.55 1014.78 1014.96 1015.28 1015.63 1015.91 1015.74
1000.03 1000.08 1000.16 999.94 1000.19 1001.13 1002.00 1002.89 1003.99 1005.52 1006.26 1007.16 1007.93 1008.50 1009.45 1010.13 1010.63 1011.12 1011.27 1011.61 1012.30 1012.36 1012.57 1012.84 1013.03 1013.80 1014.28 1014.54 1014.77 1015.09 1015.51 1015.46 1015.55
1001.26 1001.29 1001.17 1000.78 1000.27 1000.63 1001.56 1002.29 1003.28 1004.39 1005.54 1006.37 1007.16 1007.66 1008.27 1009.06 1009.72 1010.28 1010.86 1011.05 1011.49 1011.95 1012.20 1012.45 1012.89 1013.45 1013.87 1014.34 1014.64 1015.16 1015.29 1015.23 1014.99
1002.72 1002.79 1002.52 1001.79 1001.04 1001.20 1001.57 1002.20 1002.88 1003.71 1004.62 1005.44 1006.38 1006.83 1007.54 1008.25 1008.94 1009.44 1009.94 1010.42 1010.90 1011.47 1011.95 1012.20 1012.64 1013.04 1013.42 1013.93 1014.28 1014.55 1014.65 1014.84 1014.94
1003.52 1003.83 1003.78 1003.42 1003.03 1002.53 1002.64 1002.88 1003.06 1003.66 1004.41 1004.85 1005.44 1006.24 1006.85 1007.49 1008.08 1008.72 1009.07 1009.74 1010.17 1010.85 1011.40 1011.85 1012.03 1012.64 1013.17 1013.53 1013.81 1014.07 1014.21 1014.48 1014.63
1004.46 1004.79 1004.87 1004.93 1004.74 1004.84 1004.48 1004.10 1003.87 1003.89 1004.34 1004.82 1005.13 1005.54 1006.02 1006.61 1007.25 1007.73 1008.24 1008.84 1009.58 1009.93 1010.55 1011.11 1011.52 1011.84 1012.47 1012.97 1013.28 1013.47 1013.59 1014.03 1014.37
1005.29 1005.72 1005.86 1005.89 1005.72 1005.62 1005.53 1005.32 1005.08 1004.91 1004.83 1005.05 1005.14 1005.38 1005.64 1005.96 1006.53 1007.08 1007.61 1008.00 1008.78 1009.46 1009.94 1010.36 1010.87 1011.38 1011.83 1012.32 1012.51 1012.55 1012.94 1013.51 1013.78
1006.37 1006.75 1006.80 1006.69 1006.38 1006.19 1006.00 1005.90 1005.74 1005.45 1005.30 1005.43 1005.52 1005.44 1005.55 1005.84 1006.19 1006.67 1007.10 1007.61 1008.12 1008.94 1009.46 1009.96 1010.37 1010.74 1011.12 1011.48 1011.69 1011.77 1012.16 1012.72 1012.86
1007.37 1007.54 1007.54 1007.32 1006.88 1006.69 1006.51 1006.09 1005.91 1006.13 1005.56 1005.30 1005.55 1005.78 1005.92 1005.89 1005.94 1006.31 1006.77 1007.21 1007.71 1008.24 1008.79 1009.34 1009.75 1010.15 1010.49 1010.78 1011.09 1011.33 1011.81 1012.23 1012.42
1008.07 1008.02 1007.96 1007.68 1007.33 1007.09 1006.72 1006.33 1006.21 1006.07 1005.69 1005.69 1004.90 1005.73 1005.83 1006.04 1005.93 1005.90 1006.27 1006.63 1007.02 1007.66 1008.19 1008.55 1008.93 1009.41 1009.85 1010.19 1010.43 1010.85 1011.37 1011.74 1012.06
1008.22 1008.14 1007.95 1007.58 1007.43 1007.28 1006.99 1006.64 1006.28 1006.05 1005.31 1005.17 1006.01 1004.27 1005.71 1006.08 1005.60 1005.61 1005.67 1005.96 1006.34 1006.81 1007.39 1007.77 1007.98 1008.47 1008.89 1009.26 1009.66 1009.99 1010.59 1011.29 1011.41
1008.11 1007.98 1007.76 1007.54 1007.34 1007.20 1006.69 1006.52 1006.40 1005.84 1005.57 1005.10 1004.83 1004.88 1005.20 1005.78 1005.08 1005.04 1005.06 1005.32 1005.60 1006.01 1006.52 1006.95 1007.21 1007.58 1007.99 1008.21 1008.56 1009.12 1009.67 1010.32 1010.63
1007.88 1007.69 1007.58 1007.33 1007.16 1006.77 1006.51 1006.34 1006.31 1006.32 1006.00 1005.51 1005.25 1005.38 1005.73 1004.93 1004.45 1004.55 1004.51 1004.90 1005.10 1005.51 1005.98 1006.15 1006.83 1006.80 1007.19 1007.61 1007.96 1008.26 1008.90 1009.59 1009.85
1007.27 1007.23 1007.21 1007.11 1006.62 1006.34 1006.19 1006.10 1006.01 1005.77 1005.81 1005.63 1005.63 1005.32 1004.93 1004.28 1003.86 1003.85 1003.93 1004.24 1004.63 1004.97 1005.39 1005.73 1005.97 1006.40 1006.72 1006.74 1007.11 1007.44 1008.29 1008.91 1009.25
1007.19 1007.16 1007.00 1006.90 1006.23 1005.89 1005.77 1005.82 1005.79 1005.40 1005.13 1005.16 1004.91 1004.95 1004.52 1004.08 1003.64 1003.43 1003.41 1003.91 1004.47 1004.70 1004.97 1004.99 1005.49 1005.96 1006.13 1006.14 1006.45 1006.76 1007.85 1008.52 1009.02
1006.68 1006.48 1006.59 1006.71 1006.20 1005.64 1005.25 1005.33 1005.38 1005.22 1004.87 1004.59 1004.42 1004.07 1003.64 1003.25 1002.73 1002.99 1003.07 1003.36 1003.72 1003.43 1003.57 1003.97 1004.18 1004.74 1005.67 1006.57 1007.12 1007.11 1007.49 1008.36 1009.19
1006.60 1006.48 1006.50 1006.29 1006.15 1005.63 1005.27 1004.93 1004.72 1004.82 1004.57 1004.35 1004.05 1003.74 1003.27 1002.73 1002.12 1002.22 1002.53 1002.73 1002.90 1003.45 1003.29 1003.09 1003.20 1004.31 1005.32 1006.44 1007.07 1006.84 1006.26 1006.95 1008.26
1006.33 1006.06 1005.99 1005.97 1005.51 1005.12 1004.81 1004.69 1004.52 1004.11 1004.31 1004.24 1003.91 1003.46 1002.84 1001.80 1001.37 1002.20 1002.64 1003.32 1003.56 1003.96 1004.24 1004.73 1003.80 1004.56 1005.34 1005.92 1005.89 1006.81 1006.06 1006.93 1008.11
1005.98 1005.61 1005.22 1004.83 1004.66 1004.50 1004.37 1004.19 1003.94 1003.87 1003.58 1003.77 1003.55 1003.12 1002.67 1001.99 1001.74 1002.68 1002.98 1003.30 1003.93 1004.20 1003.93 1003.40 1005.21 1003.63 1003.94 1003.81 1005.59 1005.99 1007.01 1007.14 1007.80
Wind_Speed
3 7 12 15 17 17 18 19 20 18 19 19 19 18 16 13 14 9 10 11 9 9 10 12 7 12 13 11 10 10 8 8 8
6 3 6 12 16 16 17 18 19 20 19 19 19 20 16 14 14 15 12 12 12 8 8 8 12 13 12 12 12 11 9 8 8
10 8 3 8 13 17 16 18 18 19 20 20 20 19 17 15 16 14 13 12 12 11 7 9 10 12 12 13 9 10 7 9 10
11 12 10 9 9 12 15 15 16 18 18 19 19 19 17 16 16 16 15 13 12 12 12 9 10 11 13 12 12 12 12 10 9
9 11 12 13 5 6 7 13 14 15 17 18 18 17 14 17 16 16 16 15 14 12 12 12 11 10 11 12 13 12 11 12 11
9 11 12 12 14 10 4 8 10 12 13 16 17 17 18 18 17 17 17 16 16 14 13 12 14 13 12 13 13 12 12 12 12
10 10 11 11 10 9 10 8 7 8 11 13 13 16 18 17 18 18 18 15 14 15 14 14 14 14 14 13 13 13 13 11 11
10 11 12 11 10 9 8 8 5 8 9 10 12 12 13 14 15 14 14 14 15 13 14 14 14 13 13 13 14 13 12 12 13
11 11 12 11 11 11 10 8 8 7 7 9 11 11 14 13 13 14 14 13 14 14 13 14 14 15 14 14 13 14 11 11 11
9 10 11 12 11 11 10 9 7 8 11 6 8 11 12 13 13 14 14 14 14 14 15 14 14 14 14 14 14 7 10 11 12
9 10 11 10 11 11 11 11 9 10 8 8 5 4 11 14 14 15 14 15 15 15 13 15 14 14 15 14 13 11 13 13 12
11 11 11 10 10 11 11 11 12 9 12 3 5 4 17 18 13 14 14 16 16 14 14 14 14 13 16 16 15 17 16 13 13
14 14 13 13 14 13 12 11 11 11 9 11 3 4 12 19 14 13 13 14 15 13 14 13 13 15 15 16 15 15 17 16 12
16 16 16 16 15 14 14 12 11 10 10 10 6 9 12 17 11 13 12 14 12 12 13 14 13 14 13 15 15 13 17 18 13
19 19 19 20 17 15 14 13 12 12 11 11 10 11 11 12 13 9 10 14 10 12 12 12 13 12 11 13 12 14 15 18 19
20 22 18 19 18 17 16 14 14 14 12 12 12 12 11 11 11 12 12 13 14 13 12 13 14 11 11 10 8 8 5 12 13
20 19 13 15 17 19 16 14 15 15 13 12 13 13 13 11 9 7 9 9 11 15 14 14 10 11 9 6 4 4 5 6 6
20 18 17 16 16 18 18 16 15 16 15 13 13 12 13 11 11 7 8 10 9 8 11 9 13 12 8 7 7 8 5 8 9
20 20 19 17 19 19 18 16 15 15 15 14 13 12 11 11 6 4 5 4 3 3 8 9 2 11 7 2 7 8 12 14 13
19 21 20 20 16 19 16 18 17 17 15 15 15 13 12 11 6 4 3 6 5 1 5 2 16 18 21 19 10 10 10 11 11
Wind_Direction
148 188 175 184 189 194 193 198 188 187 189 198 195 201 204 207 210 215 208 214 214 218 199 221 215 196 210 209 213 215 213 204 228
101 211 229 188 185 199 195 198 191 191 194 195 200 200 198 202 206 216 208 200 217 224 222 215 195 193 197 212 211 211 211 238 230
43 43 354 253 193 194 201 198 195 194 199 195 200 201 196 202 202 206 224 206 200 226 213 223 182 192 216 210 208 215 221 227 211
28 26 11 333 233 204 195 199 199 193 202 197 204 202 195 201 201 201 208 211 212 213 227 202 214 193 201 214 201 209 215 232 260
39 23 14 359 325 217 217 202 202 200 200 203 202 203 199 200 202 203 199 208 205 206 217 228 197 221 209 213 207 210 213 217 238
42 28 22 21 13 359 221 247 221 209 214 211 201 206 200 205 202 202 208 202 205 200 204 212 218 198 214 216 217 221 215 224 223
25 32 30 26 31 24 354 335 288 241 220 225 222 204 208 202 204 204 208 198 203 198 198 202 215 209 203 214 217 222 227 228 235
25 27 23 21 24 20 20 5 307 286 255 243 233 222 210 206 198 205 205 199 191 205 194 202 203 210 208 209 218 223 223 213 228
18 13 12 13 18 15 13 7 349 327 268 249 246 238 226 209 196 204 208 207 195 195 201 203 200 205 208 210 223 218 198 210 227
14 6 360 358 356 1 359 354 352 341 325 254 236 249 240 223 206 202 208 206 201 194 200 199 204 205 206 212 219 201 180 199 217
354 358 344 349 348 342 343 333 356 338 326 312 224 263 242 236 219 207 205 204 203 201 200 202 198 203 207 211 212 195 184 187 225
330 334 323 329 332 329 323 332 333 341 321 286 244 201 311 247 225 217 207 207 205 201 204 204 202 201 202 206 216 189 189 188 223
313 312 313 318 314 313 315 328 326 329 319 316 298 211 261 260 225 217 215 210 208 206 207 209 206 206 210 207 209 188 190 191 224
300 304 307 304 301 295 303 305 316 310 308 296 319 294 253 248 234 224 207 219 205 205 208 215 209 209 207 212 209 207 189 192 216
296 297 298 298 286 281 286 296 299 297 298 305 306 287 285 283 246 229 210 215 205 205 209 208 206 211 209 209 213 205 185 192 210
295 295 289 286 285 280 278 275 279 287 289 297 298 294 290 288 283 271 228 218 213 200 211 211 212 207 217 224 187 197 147 197 220
300 294 291 297 296 292 275 271 270 272 275 279 292 298 295 287 279 282 254 229 218 212 202 203 222 207 218 203 178 184 223 195 203
289 295 290 279 281 278 281 278 262 263 271 274 276 286 291 284 277 260 258 232 232 238 270 259 195 201 193 176 198 226 195 239 213
285 287 286 280 273 274 272 269 273 255 262 272 272 276 277 273 277 264 281 247 285 121 95 322 355 119 128 267 237 255 189 180 206
295 287 285 276 270 272 260 262 263 274 256 263 264 261 268 275 229 259 275 253 214 249 77 143 284 145 214 151 228 209 214 159 157